SCP
1 1 1 1 1 1 1 1 0 0 0 0 0 0 0 0 0 0 0 0 0 0
3 3 1 1 2 1 1 1 0 0 0 0 0 0 0 0 0 0 0 0 0 0
5 4 3 3 2 1 0 0 0 0 0 0 0 0 0 0 0 0 0 0 0 0
3 4 3 2 1 1 0 0 0 0 0 0 0 0 0 0 0 0 0 0 0 0
3 3 4 3 1 0 0 0 0 0 0 0 0 0 0 0 0 0 0 0 0 0
7 3 2 1 0 0 0 0 0 0 0 0 0 0 0 0 0 0 0 0 0 0
7 3 2 0 0 0 0 0 0 0 0 0 0 0 0 0 0 0 0 0 0 0
6 2 1 0 0 0 0 0 0 0 0 0 0 0 0 0 0 0 0 0 0 0
4 1 0 0 0 0 0 0 0 0 0 0 0 0 0 0 0 0 0 0 0 0
2 1 0 0 0 0 0 0 0 0 0 0 0 0 0 0 0 0 0 0 0 0
1 0 0 0 0 0 0 0 0 0 0 0 0 0 0 0 0 0 0 0 0 0
0 0 0 0 0 0 0 0 0 0 0 0 0 0 0 0 0 -0 -0 0 0 0
0 0 0 0 0 0 0 0 0 0 0 0 0 0 0 0 -0 -0 -0 0 0 0
0 0 0 0 0 0 0 0 0 0 0 0 0 0 0 -0 -0 -0 0 0 0 0
Wind_Speed_500mb
82 85 87 80 81 81 79 76 76 65 54 53 51 39 32 26 30 28 22 15 8 5
72 85 83 80 79 78 77 77 76 68 66 61 44 35 33 33 36 26 21 12 6 3
65 77 80 76 77 66 77 78 79 73 67 54 42 39 36 41 33 24 18 11 7 8
63 66 79 76 75 65 64 80 75 73 66 54 50 44 45 39 31 20 15 14 12 9
78 65 89 79 77 67 72 77 78 75 64 58 56 53 46 38 26 21 19 16 11 9
71 69 83 83 84 75 78 83 81 75 66 67 59 51 43 33 31 25 20 14 10 11
78 84 80 85 83 77 75 89 81 72 63 50 48 41 37 34 28 25 20 13 12 13
80 77 83 84 78 67 91 88 70 58 41 40 23 25 35 34 29 23 19 17 17 15
78 74 70 73 72 79 91 89 78 61 60 59 52 44 36 29 28 24 23 22 21 22
82 89 86 78 71 97 91 84 76 79 71 62 58 48 38 31 30 29 29 28 26 24
90 84 74 87 93 102 95 91 88 84 78 77 59 44 35 33 34 35 36 33 29 28
94 96 95 102 111 108 106 98 94 84 78 70 66 40 36 37 40 41 41 36 33 29
96 108 119 122 118 110 105 106 95 88 76 65 63 46 38 35 40 43 43 37 35 31
109 113 122 131 123 116 108 101 96 88 75 65 59 47 37 35 43 43 41 38 34 29
Wind_Direction_500mb
195 213 214 215 216 209 206 203 198 195 198 201 195 193 199 204 194 176 183 180 190 204
201 208 214 212 215 213 206 201 196 194 194 194 195 192 187 185 181 174 175 176 170 164
201 210 216 215 209 207 206 201 196 195 192 191 186 182 178 178 171 171 165 151 127 101
215 212 217 216 214 217 216 207 203 196 192 187 179 174 172 171 159 164 151 131 111 83
202 207 211 212 219 219 209 202 202 191 184 179 172 167 166 162 154 151 135 122 99 63
206 220 214 213 216 209 201 195 186 180 174 160 158 160 155 160 149 144 128 112 81 54
193 215 202 207 209 195 193 181 174 169 163 146 152 158 138 157 145 140 122 100 82 74
198 189 198 202 202 186 180 173 167 147 142 139 149 156 166 153 139 128 116 109 97 94
190 190 207 199 179 177 168 161 160 165 166 163 182 174 167 148 135 125 114 111 107 97
190 187 189 191 185 168 165 166 163 163 159 158 160 162 154 143 132 126 120 112 105 101
187 189 192 183 175 166 164 162 162 155 156 156 152 157 148 138 133 127 118 113 107 92
184 183 184 176 168 164 166 161 157 156 155 151 143 153 148 144 134 127 120 113 99 93
180 181 176 171 165 164 162 155 155 153 154 148 139 147 143 141 134 131 122 111 101 90
178 176 173 168 167 163 157 151 152 149 145 140 136 137 138 137 135 127 121 114 103 91
Wind_Speed_850mb
82 85 87 80 81 81 79 76 76 65 54 53 51 39 32 26 30 28 22 15 8 5
72 85 83 80 79 78 77 77 76 68 66 61 44 35 33 33 36 26 21 12 6 3
65 77 80 76 77 66 77 78 79 73 67 54 42 39 36 41 33 24 18 11 7 8
63 66 79 76 75 65 64 80 75 73 66 54 50 44 45 39 31 20 15 14 12 9
78 65 89 79 77 67 72 77 78 75 64 58 56 53 46 38 26 21 19 16 11 9
71 69 83 83 84 75 78 83 81 75 66 67 59 51 43 33 31 25 20 14 10 11
78 84 80 85 83 77 75 89 81 72 63 50 48 41 37 34 28 25 20 13 12 13
80 77 83 84 78 67 91 88 70 58 41 40 23 25 35 34 29 23 19 17 17 15
78 74 70 73 72 79 91 89 78 61 60 59 52 44 36 29 28 24 23 22 21 22
82 89 86 78 71 97 91 84 76 79 71 62 58 48 38 31 30 29 29 28 26 24
90 84 74 87 93 102 95 91 88 84 78 77 59 44 35 33 34 35 36 33 29 28
94 96 95 102 111 108 106 98 94 84 78 70 66 40 36 37 40 41 41 36 33 29
96 108 119 122 118 110 105 106 95 88 76 65 63 46 38 35 40 43 43 37 35 31
109 113 122 131 123 116 108 101 96 88 75 65 59 47 37 35 43 43 41 38 34 29
Wind_Direction_850mb
195 213 214 215 216 209 206 203 198 195 198 201 195 193 199 204 194 176 183 180 190 204
201 208 214 212 215 213 206 201 196 194 194 194 195 192 187 185 181 174 175 176 170 164
201 210 216 215 209 207 206 201 196 195 192 191 186 182 178 178 171 171 165 151 127 101
215 212 217 216 214 217 216 207 203 196 192 187 179 174 172 171 159 164 151 131 111 83
202 207 211 212 219 219 209 202 202 191 184 179 172 167 166 162 154 151 135 122 99 63
206 220 214 213 216 209 201 195 186 180 174 160 158 160 155 160 149 144 128 112 81 54
193 215 202 207 209 195 193 181 174 169 163 146 152 158 138 157 145 140 122 100 82 74
198 189 198 202 202 186 180 173 167 147 142 139 149 156 166 153 139 128 116 109 97 94
190 190 207 199 179 177 168 161 160 165 166 163 182 174 167 148 135 125 114 111 107 97
190 187 189 191 185 168 165 166 163 163 159 158 160 162 154 143 132 126 120 112 105 101
187 189 192 183 175 166 164 162 162 155 156 156 152 157 148 138 133 127 118 113 107 92
184 183 184 176 168 164 166 161 157 156 155 151 143 153 148 144 134 127 120 113 99 93
180 181 176 171 165 164 162 155 155 153 154 148 139 147 143 141 134 131 122 111 101 90
178 176 173 168 167 163 157 151 152 149 145 140 136 137 138 137 135 127 121 114 103 91